Simultaneous Nadir Overpasses (SNOs) Predictions

Prediction of SNOs between FY3D and METOP-C Satellite Orbit:

Table of predicted SNOs for the next 14.0 days since TLE Epoch: 1/28/2021
Index Date (FY3D) Time (FY3D) Lat,Lon (FY3D) SZA (FY3D ) Date (METOP-C) Time (METOP-C) Lat,Lon (METOP-C) SZA (METOP-C ) Distance(km) Time Diff (sec)
1 02/10/2021 21:41:15 -73.94, 26.07 91.76 02/10/2021 21:42:20 -73.89, 29.25 91.97 98.16 65
2 02/10/2021 22:31:55 73.67,-165.97 87.93 02/10/2021 22:33:04 73.63,-164.05 87.78 60.25 69
3 02/10/2021 23:22:38 -73.64, 1.40 92.11 02/10/2021 23:23:48 -73.58, 3.16 92.28 55.52 70
4 02/11/2021 00:13:19 73.42, 169.24 87.63 02/11/2021 00:14:31 73.35, 169.99 87.52 24.98 72
5 02/11/2021 01:04:02 -73.40, -23.39 92.41 02/11/2021 01:05:14 -73.36, -22.68 92.50 23.03 72
6 02/11/2021 01:54:44 73.22, 144.32 87.39 02/11/2021 01:55:55 73.23, 144.39 87.39 2.68 71



Historial Predications of SNOs between FY3D and METOP-C
